Volver al catálogo

STARLINK-36488

ActivoComunicacionesVLEO
NORAD 67306·PAYLOAD·🇺🇸 United States

Lanzado Jan 4, 2026 desde Cape Canaveral Space Force Station

Loading…

Próximos Pases (próximas 24 horas)

TLE

ActualizadoSource: CelesTrak SupGP

Época: Sep 14, 2026, 21:39 UTC

1 67306C 26002B   26257.90256944 -.00021681  00000+0 -78532-3 0  2577
2 67306  43.0009 336.9857 0001302 273.3991  72.4400 15.27587915    19

Sigue STARLINK-36488 en tiempo real con AllMySat

Download on the App Store